• In Netherlands
  • List of Countries
  • For 7 days
  • Water Temperature
  • Satellite Maps
  • Weather Map
  • Weather Widgets
  • user-avatar
    Login

    Hourly Weather Kocanowo

    Today, 15 October, Monday

    Time Temperature Precipitation Wind Pressure Humidity
    00:00 +14°C° 0 mm 4 mps 755 mmHg 59%
    01:00 +14°C° 0 mm 4 mps 755 mmHg 59%
    02:00 +14°C° 0 mm 4 mps 755 mmHg 58%
    03:00 +13°C° 0 mm 4 mps 755 mmHg 57%
    04:00 +13°C° 0 mm 4 mps 754 mmHg 56%
    05:00 +13°C° 0 mm 4 mps 755 mmHg 57%
    06:00 +13°C° 0 mm 4 mps 755 mmHg 59%
    07:00 +13°C° 0 mm 4 mps 755 mmHg 60%
    08:00 +15°C° 0 mm 4 mps 755 mmHg 54%
    09:00 +16°C° 0 mm 5 mps 755 mmHg 47%
    10:00 +19°C° 0 mm 5 mps 755 mmHg 40%
    11:00 +20°C° 0 mm 5 mps 755 mmHg 37%
    12:00 +22°C° 0 mm 5 mps 755 mmHg 35%
    13:00 +23°C° 0 mm 5 mps 755 mmHg 32%
    14:00 +22°C° 0 mm 4 mps 755 mmHg 35%
    15:00 +21°C° 0 mm 4 mps 754 mmHg 38%
    16:00 +21°C° 0 mm 3 mps 754 mmHg 41%
    17:00 +19°C° 0 mm 3 mps 754 mmHg 44%
    18:00 +18°C° 0 mm 4 mps 754 mmHg 46%
    19:00 +17°C° 0 mm 4 mps 754 mmHg 49%
    20:00 +17°C° 0 mm 4 mps 754 mmHg 50%
    21:00 +15°C° 0 mm 4 mps 754 mmHg 51%
    22:00 +16°C° 0 mm 3 mps 755 mmHg 53%
    23:00 +14°C° 0 mm 3 mps 755 mmHg 53%

    Tomorrow, 16 October, Tuesday

    Time Temperature Precipitation Wind Pressure Humidity
    00:00 +14°C° 0 mm 3 mps 755 mmHg 54%
    01:00 +13°C° 0 mm 3 mps 755 mmHg 54%
    02:00 +13°C° 0 mm 3 mps 755 mmHg 54%
    03:00 +13°C° 0 mm 3 mps 754 mmHg 55%
    04:00 +12°C° 0 mm 3 mps 754 mmHg 55%
    05:00 +12°C° 0 mm 3 mps 755 mmHg 56%
    06:00 +12°C° 0 mm 3 mps 755 mmHg 57%
    07:00 +12°C° 0 mm 3 mps 755 mmHg 58%
    08:00 +14°C° 0 mm 3 mps 755 mmHg 53%
    09:00 +16°C° 0 mm 3 mps 755 mmHg 48%
    10:00 +18°C° 0 mm 3 mps 755 mmHg 43%
    11:00 +19°C° 0 mm 3 mps 755 mmHg 41%
    12:00 +20°C° 0 mm 4 mps 755 mmHg 39%
    13:00 +22°C° 0 mm 4 mps 755 mmHg 37%
    14:00 +21°C° 0 mm 3 mps 755 mmHg 40%
    15:00 +20°C° 0 mm 3 mps 755 mmHg 43%
    16:00 +20°C° 0 mm 2 mps 755 mmHg 46%
    17:00 +19°C° 0 mm 2 mps 755 mmHg 49%
    18:00 +17°C° 0 mm 2 mps 755 mmHg 51%
    19:00 +16°C° 0 mm 2 mps 755 mmHg 54%
    20:00 +16°C° 0 mm 3 mps 755 mmHg 55%
    21:00 +14°C° 0 mm 3 mps 755 mmHg 56%
    22:00 +14°C° 0 mm 3 mps 755 mmHg 57%
    23:00 +14°C° 0 mm 3 mps 755 mmHg 59%

    Day after tomorrow, 17 October, Wednesday

    Time Temperature Precipitation Wind Pressure Humidity
    00:00 +13°C° 0 mm 3 mps 755 mmHg 60%
    01:00 +14°C° 0 mm 2 mps 755 mmHg 62%
    02:00 +14°C° 0 mm 2 mps 755 mmHg 63%
    03:00 +13°C° 0 mm 2 mps 755 mmHg 65%
    04:00 +13°C° 0 mm 2 mps 755 mmHg 66%
    05:00 +13°C° 0 mm 2 mps 755 mmHg 67%
    06:00 +13°C° 0 mm 2 mps 755 mmHg 68%
    07:00 +12°C° 0 mm 2 mps 755 mmHg 69%
    08:00 +14°C° 0 mm 2 mps 755 mmHg 63%
    09:00 +16°C° 0 mm 2 mps 755 mmHg 57%
    10:00 +18°C° 0 mm 3 mps 756 mmHg 52%
    11:00 +19°C° 0 mm 3 mps 755 mmHg 49%
    12:00 +20°C° 0 mm 3 mps 755 mmHg 46%
    13:00 +21°C° 0 mm 3 mps 755 mmHg 43%
    14:00 +20°C° 0 mm 2 mps 755 mmHg 46%
    15:00 +20°C° 0 mm 2 mps 755 mmHg 49%
    16:00 +20°C° 0 mm 1 mps 755 mmHg 52%
    17:00 +19°C° 0 mm 1 mps 755 mmHg 54%
    18:00 +18°C° 0 mm 1 mps 755 mmHg 57%
    19:00 +16°C° 0 mm 1 mps 755 mmHg 60%
    20:00 +16°C° 0 mm 1 mps 755 mmHg 62%
    21:00 +15°C° 0 mm 1 mps 755 mmHg 65%
    22:00 +15°C° 0 mm 2 mps 755 mmHg 67%
    23:00 +15°C° 0 mm 1 mps 755 mmHg 69%

    18 October, Thursday

    Time Temperature Precipitation Wind Pressure Humidity
    00:00 +14°C° 0 mm 1 mps 755 mmHg 71%
    01:00 +14°C° 0 mm 1 mps 755 mmHg 74%
    02:00 +14°C° 0 mm 1 mps 755 mmHg 75%
    03:00 +13°C° 0 mm 1 mps 755 mmHg 77%
    04:00 +12°C° 0 mm 0 mps 755 mmHg 78%
    05:00 +12°C° 0 mm 0 mps 755 mmHg 79%
    06:00 +12°C° 0 mm 0 mps 755 mmHg 79%
    07:00 +12°C° 0 mm 0 mps 755 mmHg 79%
    08:00 +14°C° 0 mm 0 mps 755 mmHg 72%
    09:00 +15°C° 0 mm 0 mps 755 mmHg 66%
    10:00 +17°C° 0 mm 0 mps 755 mmHg 59%
    11:00 +20°C° 0 mm 1 mps 755 mmHg 56%
    12:00 +21°C° 0 mm 1 mps 755 mmHg 53%
    13:00 +22°C° 0 mm 1 mps 755 mmHg 51%
    14:00 +21°C° 0 mm 1 mps 755 mmHg 53%
    15:00 +21°C° 0 mm 1 mps 755 mmHg 55%
    16:00 +20°C° 0 mm 1 mps 755 mmHg 58%
    17:00 +19°C° 0 mm 1 mps 755 mmHg 62%
    18:00 +18°C° 0 mm 1 mps 755 mmHg 66%
    19:00 +16°C° 0 mm 1 mps 755 mmHg 70%
    20:00 +15°C° 0 mm 1 mps 756 mmHg 72%
    21:00 +15°C° 0 mm 1 mps 756 mmHg 75%
    22:00 +14°C° 0 mm 1 mps 756 mmHg 77%
    23:00 +14°C° 0 mm 2 mps 756 mmHg 79%

    19 October, Friday

    Time Temperature Precipitation Wind Pressure Humidity
    00:00 +13°C° 0 mm 2 mps 756 mmHg 81%
    01:00 +13°C° 0 mm 2 mps 756 mmHg 83%
    02:00 +12°C° 0 mm 2 mps 756 mmHg 85%
    03:00 +12°C° 0 mm 2 mps 756 mmHg 87%
    04:00 +12°C° 0 mm 2 mps 756 mmHg 88%
    05:00 +10°C° 0 mm 2 mps 756 mmHg 89%
    06:00 +10°C° 0 mm 2 mps 756 mmHg 90%
    07:00 +10°C° 0 mm 2 mps 756 mmHg 91%
    08:00 +13°C° 0 mm 2 mps 757 mmHg 85%
    09:00 +14°C° 0 mm 2 mps 757 mmHg 78%
    10:00 +16°C° 0 mm 2 mps 757 mmHg 72%
    11:00 +16°C° 0 mm 3 mps 757 mmHg 70%
    12:00 +17°C° 0 mm 3 mps 757 mmHg 68%
    13:00 +17°C° 0 mm 3 mps 757 mmHg 66%
    14:00 +17°C° 0 mm 3 mps 757 mmHg 66%
    15:00 +17°C° 0 mm 2 mps 757 mmHg 67%
    16:00 +16°C° 0 mm 2 mps 757 mmHg 67%
    17:00 +15°C° 0 mm 2 mps 757 mmHg 68%
    18:00 +14°C° 0 mm 2 mps 757 mmHg 70%
    19:00 +13°C° 0 mm 2 mps 757 mmHg 72%
    20:00 +12°C° 0 mm 2 mps 757 mmHg 74%
    21:00 +10°C° 0 mm 2 mps 757 mmHg 77%
    22:00 +9°C° 0 mm 2 mps 758 mmHg 79%
    23:00 +9°C° 0 mm 2 mps 758 mmHg 82%

    20 October, Saturday

    Time Temperature Precipitation Wind Pressure Humidity
    00:00 +8°C° 0 mm 2 mps 758 mmHg 85%
    01:00 +7°C° 0 mm 2 mps 758 mmHg 88%
    02:00 +7°C° 0 mm 2 mps 758 mmHg 89%
    03:00 +6°C° 0 mm 2 mps 758 mmHg 91%
    04:00 +6°C° 0 mm 2 mps 758 mmHg 92%
    05:00 +5°C° 0 mm 3 mps 758 mmHg 93%
    06:00 +4°C° 0 mm 3 mps 759 mmHg 94%
    07:00 +4°C° 0 mm 3 mps 759 mmHg 94%
    08:00 +7°C° 0 mm 3 mps 759 mmHg 88%
    09:00 +8°C° 0 mm 3 mps 759 mmHg 81%
    10:00 +10°C° 0 mm 3 mps 760 mmHg 75%
    11:00 +11°C° 0 mm 4 mps 760 mmHg 70%
    12:00 +12°C° 0 mm 4 mps 760 mmHg 65%
    13:00 +12°C° 0 mm 5 mps 760 mmHg 61%
    14:00 +12°C° 0 mm 4 mps 760 mmHg 61%
    15:00 +11°C° 0 mm 4 mps 760 mmHg 61%
    16:00 +11°C° 0 mm 4 mps 760 mmHg 62%
    17:00 +10°C° 0 mm 4 mps 760 mmHg 66%
    18:00 +9°C° 0 mm 3 mps 760 mmHg 69%
    19:00 +8°C° 0 mm 3 mps 760 mmHg 73%
    20:00 +8°C° 0 mm 3 mps 761 mmHg 75%
    21:00 +8°C° 0 mm 3 mps 761 mmHg 77%
    22:00 +7°C° 0 mm 3 mps 761 mmHg 79%
    23:00 +7°C° 0 mm 3 mps 761 mmHg 80%
    Show more